Location: Houston
(29.7630°N, 95.3630°W)
Time: 11:29:10
(UTC-05:00)

Daily predictions for brighter satellites

Satellite Brightness Start Highest point End
(mag) Time Altitude Azimuth Time Altitude Azimuth Time Altitude Azimuth
Cosmos 1610 Rocket 4.5 20:06:12 10° S 20:12:17 75° E 20:18:25 10° N
Cosmos 1340 2.9 20:13:01 10° S 20:16:47 77° W 20:20:35 10° N
Cosmos 1633 Rocket 3.9 20:14:09 10° NNE 20:17:58 29° E 20:21:47 10° SE
EO 1 Del DPAF 3.9 20:18:54 10° N 20:22:40 60° WNW 20:26:25 10° SSW
OAO 2 Rocket 3.5 20:18:25 10° WNW 20:23:42 82° NNE 20:28:52 10° ESE
Cosmos 2278 Rocket 3.6 20:20:27 10° NNE 20:24:41 21° ENE 20:28:53 10° ESE
Cosmos 1515 Rocket 4.5 20:21:50 10° SSE 20:25:38 28° E 20:29:27 10° NNE
FengYun 1-2 T 4.3 20:20:41 10° SSE 20:26:17 89° ENE 20:31:57 10° NNW
ASTRO E2 2.7 20:28:48 10° WSW 20:32:50 88° SSE 20:36:51 10° E
Envisat 3.1 20:32:12 10° SSE 20:37:08 55° ENE 20:42:05 10° N
Hubble Space Telescope 2.5 20:34:26 10° SSW 20:37:09 17° SSE 20:39:00 13° SE
H-2A R/B 4.4 20:34:36 10° SSW 20:38:00 34° W 20:41:28 10° NNW
Cosmos 1825 4.0 20:36:50 10° NE 20:38:53 14° ENE 20:39:48 13° E
Cosmos 1328 Rocket 3.5 20:36:17 10° S 20:40:39 69° E 20:45:03 10° NNE
CZ-4C R/B 3.9 20:44:58 11° E 20:44:58 11° E 20:45:16 10° E
Nadezhda 3 Rocket 4.0 20:36:46 10° N 20:43:06 72° E 20:49:26 10° SSE
OAO 3 Rocket 4.1 20:39:47 10° SSW 20:43:49 27° SSE 20:46:40 16° E
Fermi 4.4 20:40:30 10° WSW 20:44:27 43° S 20:47:16 17° ESE
FREGAT/IRIS 3.7 20:41:51 10° S 20:44:41 45° W 20:47:31 10° NNW
Cosmos 1805 Rocket 4.4 20:41:02 10° NNW 20:45:14 51° W 20:49:25 10° S
Cosmos 2228 Rocket 3.2 20:41:57 10° SSE 20:46:11 50° E 20:50:26 10° NNE
Cosmos 2056 Rocket 3.8 20:48:04 10° S 20:53:14 47° ESE 20:58:23 10° NNE
Cosmos 2251 Rocket 4.1 20:49:14 10° NNW 20:54:30 61° WSW 20:59:44 10° S
Sakura Rocket 3.2 20:50:26 10° W 20:56:04 79° S 20:58:50 22° E
SL-16 R/B 2.4 20:55:24 10° S 21:00:44 45° ESE 21:06:06 10° NE
Cosmos 1408 3.4 20:58:02 10° NNE 21:01:22 32° E 21:02:18 28° ESE
Cosmos 1470 Rocket 3.7 20:59:56 10° N 21:04:16 53° E 21:07:10 20° SSE
Gblst 52 Del rocket 4.2 21:03:17 10° SSW 21:08:57 53° SE 21:14:17 10° NE
Cosmos 1624 Rocket 3.9 21:04:26 10° S 21:09:36 74° ESE 21:14:47 10° NNE
Cosmos 220 Rocket 4.0 21:06:11 10° NNW 21:10:29 82° WSW 21:13:32 18° S
ERS-2 2.2 21:10:25 16° S 21:13:12 75° WSW 21:16:53 10° NNW
YAOGAN 6 2.4 21:11:28 26° SSE 21:13:24 79° ENE 21:17:03 10° N
Cosmos 2098 Rocket 3.3 21:08:52 10° SSE 21:13:35 48° E 21:17:23 10° NNE
ATLAS 2AS CENTAUR R/B 2.8 21:05:51 10° NNW 21:13:37 81° ENE 21:18:33 22° SSE
Resurs 01 Rocket 1.6 21:12:35 26° SSE 21:14:56 60° ENE 21:19:19 10° N
Cosmos 2344 3.7 21:08:01 10° S 21:15:26 46° ESE 21:22:42 10° NE
Cosmos 1151 Rocket 3.3 21:12:10 10° SSW 21:16:22 66° W 21:20:37 10° N
SJ-11-01 4.4 21:15:33 30° SE 21:17:39 54° ENE 21:22:12 10° N
Cosmos 1959 Rocket 4.4 21:12:20 10° S 21:18:28 72° E 21:24:34 10° N
SAR-Lupe-3 4.4 21:15:51 10° NNE 21:19:25 88° ESE 21:22:35 13° SSW
Spot 2 Rocket 3.7 21:17:24 30° SE 21:19:39 51° ENE 21:24:34 10° N
deb Centaur AC-2 4.3 21:22:28 10° W 21:26:39 52° SSW 21:27:41 42° SSE
Stardust Del rocket 4.4 21:27:59 10° SW 21:30:59 33° S 21:30:59 33° S
Cosmos 1727 Rocket 4.3 21:26:25 10° N 21:32:14 43° E 21:33:38 38° ESE
Cosmos 1933 Rocket 3.5 21:28:10 10° N 21:32:32 83° W 21:34:21 34° S
Cosmos 1869 3.7 21:31:24 13° SSW 21:34:55 64° W 21:38:54 10° N
Cosmos 1441 Rocket 4.4 21:37:10 29° NE 21:37:10 29° NE 21:39:14 10° NNE
BREEZE-M DEB (TANK) 4.3 21:36:05 10° NNW 21:37:32 18° N 21:37:32 18° N
Resurs 1-3 4.0 21:38:37 29° S 21:40:40 60° W 21:45:01 10° NNW
Cosmos 2297 4.4 21:35:45 10° N 21:40:58 36° ENE 21:41:21 36° ENE
Cosmos 2218 Rocket 4.3 21:37:18 10° SSW 21:43:35 68° W 21:49:57 10° N
NOSS 3-4 (A) 4.4 21:37:28 10° NNW 21:44:15 42° NE 21:46:15 36° E
NOSS 3-4 (C) 4.4 21:37:35 10° NNW 21:44:21 42° NE 21:46:20 35° E
Cosmos 1939 Rocket 4.0 21:44:30 24° SSW 21:46:13 38° W 21:49:52 10° NNW
USA 186 4.4 21:47:55 12° W 21:47:55 12° W 21:48:38 10° WNW
ERS-1 Rocket 4.5 21:49:54 22° NE 21:49:54 22° NE 21:52:43 10° NNE
Cosmos 2366 rocket 4.3 21:44:34 10° SSW 21:50:43 65° W 21:56:57 10° N
Cosmos 407 Rocket 3.4 21:59:42 10° NNW 22:04:28 71° NE 22:04:28 71° NE
NOAA 11 4.5 22:03:16 44° SSW 22:04:53 64° WSW 22:10:21 10° NNW
Cosmos 2278 Rocket 3.2 22:03:34 10° NW 22:08:50 41° WSW 22:10:53 30° SSW
Cosmos 405 Rocket 4.2 22:10:36 33° NNW 22:10:36 33° NNW 22:13:00 10° N
BREEZE-M DEB (TANK) 4.1 22:08:07 10° SW 22:12:19 80° SE 22:27:56 10° NE
ASTRO E2 4.2 22:09:28 10° W 22:11:55 35° WNW 22:11:55 35° WNW
Cosmos 1825 4.3 22:11:20 10° NW 22:14:22 23° W 22:14:41 23° W
Hubble Space Telescope 3.4 22:14:00 10° WSW 22:14:24 12° WSW 22:14:24 12° WSW
ATLAS 2A CENTAUR R/B 3.7 21:58:04 10° WSW 22:19:13 74° S 22:22:31 51° ESE
H-2A R/B 2.9 22:23:56 40° N 22:23:56 40° N 22:27:12 10° N
USA 81 4.3 22:18:08 10° N 22:22:59 67° WNW 22:22:59 67° WNW
CZ-4C R/B 2.7 22:29:40 45° W 22:30:38 51° WNW 22:36:03 10° NNE
ARGOS 3.6 22:33:05 59° NW 22:33:05 59° NW 22:37:29 10° NNW
Cosmos 1452 Rocket 4.4 22:35:18 43° W 22:35:50 44° WNW 22:40:51 10° N
Aurora 2 Rocket 4.4 22:28:23 10° WSW 22:34:02 39° SW 22:34:02 39° SW
Cosmos 2369 Rocket 4.2 23:20:21 10° N 23:22:25 22° N 23:22:25 22° N
USA 267 4.5 23:29:35 10° NNE 23:33:29 34° N 23:33:29 34° N
ATLAS 5 CENTAUR R/B 4.2 23:37:45 10° NNW 23:40:22 26° N 23:40:22 26° N
